Simultaneous Nadir Overpasses (SNOs) Predictions

Prediction of SNOs between NOAA-19 and TERRA Satellite Orbit:

Table of predicted SNOs for the next 14.0 days since TLE Epoch: 11/16/2012
Index Date (NOAA-19) Time (NOAA-19) NOAA-19 Lat,Lon Date (TERRA) Time (TERRA) TERRA Lat,Lon Distance(km) Time Diff (sec)
1 11/17/2012 16:12:14 -69.63, 115.74 11/17/2012 16:13:25 -69.48, 116.66 39.41 71
2 11/17/2012 17:03:03 69.09, -76.23 11/17/2012 17:02:57 69.10, -76.20 1.64 6
3 11/17/2012 17:53:50 -68.10, 92.34 11/17/2012 17:52:42 -68.16, 90.27 86.07 68
4 11/19/2012 20:56:38 -69.20, 45.24 11/19/2012 20:57:49 -69.23, 45.24 2.78 71
5 11/19/2012 21:47:35 69.07,-147.32 11/19/2012 21:47:17 69.07,-147.32 0.31 18
6 11/22/2012 01:41:10 -69.20, -25.88 11/22/2012 01:42:08 -69.22, -25.84 3.22 58
7 11/22/2012 02:32:07 69.04, 141.59 11/22/2012 02:31:36 69.06, 141.59 1.67 31
8 11/24/2012 06:25:42 -69.20, -97.00 11/24/2012 06:26:27 -69.19, -96.96 1.98 45
9 11/24/2012 07:16:39 69.02, 70.49 11/24/2012 07:15:55 69.03, 70.47 0.93 44
10 11/26/2012 11:10:13 -69.15,-168.06 11/26/2012 11:10:46 -69.14,-168.10 1.75 33
11 11/26/2012 12:01:11 69.00, -0.61 11/26/2012 12:00:13 69.02, -0.60 2.82 58
12 11/28/2012 15:54:45 -69.15, 120.81 11/28/2012 15:55:03 -69.17, 120.87 3.22 18
13 11/28/2012 16:45:43 68.98, -71.71 11/28/2012 16:44:31 69.00, -71.70 2.02 72
14 11/30/2012 19:48:31 70.06,-118.91 11/30/2012 19:49:38 69.94,-116.79 81.86 67
